Weather History for Hereford, TX

Change the Weather History Date:

Saturday, April 6, 2013

  Actual Average (KAMA) Record (KAMA)
Temperature  
Mean Temperature 58 °F 54 °F  
Max Temperature 74 °F 69 °F 93 °F (1972)
Min Temperature 42 °F 39 °F 17 °F (1994)
Degree Days  
Heating Degree Days 8 12  
Month to date heating degree days 75  
Since 1 July heating degree days 3884  
Cooling Degree Days 0 0  
Month to date cooling degree days 0  
Year to date cooling degree days 2  
Growing Degree Days 8 (Base 50)    
Moisture  
Dew Point 28 °F    
Average Humidity 32    
Maximum Humidity 58    
Minimum Humidity 15    
Precipitation  
Precipitation 0.00 in 0.04 in 1.19 in (1900)
Month to date precipitation 0.27  
Year to date precipitation 2.94  
Snow  
Snow 0.00 in 0.10 in 5.90 in (1940)
Month to date snowfall 0.3  
Since 1 July snowfall 17.2  
Snow Depth -    
Sea Level Pressure  
Sea Level Pressure 29.89 in    
Wind  
Wind Speed 13 mph (SSE)    
Max Wind Speed 25 mph    
Max Gust Speed 32 mph    
Visibility 10 miles    
Events      
T = Trace of Precipitation, MM = Missing Value Source: NWS Daily Summary

Daily Weather History Graph

Daily Weather History Graph

Search for Another Location

Airport:

Trip Planner

Search our weather history database for the weather conditions in past years. The results will help you decide how hot, cold, wet, or windy it might be!

Date:

Astronomy

Apr. 06, 2013 Rise Set
Actual Time 7:28 AM CDT 8:14 PM CDT
Civil Twilight 7:03 AM CDT 8:40 PM CDT
Nautical Twilight 6:33 AM CDT 9:10 PM CDT
Astronomical Twilight 6:02 AM CDT 9:41 PM CDT
Moon 5:05 AM CDT (4/6) 4:53 PM CDT (4/6)
Length of Visible Light 13h 37m
Length of Day
12h 45m
Waning Crescent, 15% of the Moon is Illuminated
Apr 6
Waning Crescent
Apr 10
New
Apr 18
First Quarter
Apr 25
Full
May 2
Last Quarter

Hourly Weather History & Observations

Time (CDT) Temp. Windchill Dew Point Humidity Pressure Visibility Wind Dir Wind Speed Gust Speed Precip Events Conditions
12:15 AM 58.1 °F - 23.9 °F 27% 29.86 in 10.0 mi SSW 15.0 mph 19.6 mph N/A   Mostly Cloudy
12:35 AM 56.8 °F - 23.4 °F 27% 29.86 in 10.0 mi SSW 16.1 mph 20.7 mph N/A   Mostly Cloudy
12:55 AM 57.4 °F - 23.0 °F 27% 29.85 in 10.0 mi SSW 17.3 mph 21.9 mph N/A   Mostly Cloudy
1:15 AM 56.8 °F - 23.0 °F 27% 29.85 in 10.0 mi SSW 16.1 mph - N/A   Clear
1:35 AM 56.3 °F - 23.4 °F 28% 29.84 in 10.0 mi SSW 15.0 mph - N/A   Clear
1:55 AM 55.6 °F - 24.1 °F 30% 29.84 in 10.0 mi SSW 16.1 mph - N/A   Clear
2:15 AM 54.9 °F - 25.0 °F 32% 29.84 in 10.0 mi SSW 15.0 mph 21.9 mph N/A   Scattered Clouds
2:35 AM 55.4 °F - 26.1 °F 32% 29.83 in 10.0 mi SSW 15.0 mph - N/A   Mostly Cloudy
2:55 AM 55.2 °F - 26.8 °F 34% 29.83 in 10.0 mi SSW 16.1 mph - N/A   Mostly Cloudy
3:15 AM 55.0 °F - 28.0 °F 35% 29.82 in 10.0 mi SSW 18.4 mph 24.2 mph N/A   Mostly Cloudy
3:35 AM 54.1 °F - 29.8 °F 39% 29.82 in 10.0 mi SW 16.1 mph 21.9 mph N/A   Mostly Cloudy
3:55 AM 53.6 °F - 31.6 °F 43% 29.81 in 10.0 mi SW 15.0 mph 21.9 mph N/A   Mostly Cloudy
4:15 AM 52.5 °F - 32.7 °F 47% 29.81 in 10.0 mi SW 12.7 mph 19.6 mph N/A   Mostly Cloudy
4:35 AM 51.8 °F - 33.8 °F 50% 29.81 in 10.0 mi SW 11.5 mph - N/A   Scattered Clouds
4:55 AM 50.7 °F - 34.2 °F 53% 29.81 in 10.0 mi SW 10.4 mph - N/A   Clear
5:15 AM 49.6 °F - 34.7 °F 56% 29.81 in 10.0 mi WSW 8.1 mph - N/A   Clear
5:35 AM 49.1 °F - 34.9 °F 58% 29.82 in 10.0 mi WSW 9.2 mph - N/A   Clear
5:55 AM 49.6 °F - 32.9 °F 53% 29.82 in 10.0 mi West 10.4 mph - N/A   Clear
6:15 AM 47.1 °F - 31.6 °F 55% 29.82 in 10.0 mi West 9.2 mph - N/A   Clear
6:35 AM 47.3 °F - 29.7 °F 50% 29.82 in 10.0 mi West 11.5 mph - N/A   Clear
6:55 AM 45.7 °F 40.2 °F 28.8 °F 52% 29.86 in 10.0 mi NW 11.5 mph - N/A   Clear
7:15 AM 42.8 °F 38.6 °F 27.3 °F 54% 29.88 in 10.0 mi NNW 6.9 mph - N/A   Clear
7:35 AM 46.6 °F - 26.4 °F 45% 29.88 in 10.0 mi NNW 10.4 mph - N/A   Clear
7:55 AM 47.5 °F - 27.1 °F 45% 29.89 in 10.0 mi NW 5.8 mph - N/A   Clear
8:15 AM 48.2 °F - 28.0 °F 46% 29.90 in 10.0 mi NW 5.8 mph - N/A   Clear
8:35 AM 52.2 °F - 30.0 °F 43% 29.91 in 10.0 mi NNW 4.6 mph - N/A   Clear
8:55 AM 55.6 °F - 31.5 °F 40% 29.92 in 10.0 mi North 6.9 mph - N/A   Clear
9:15 AM 58.5 °F - 32.7 °F 38% 29.93 in 10.0 mi NNE 11.5 mph - N/A   Clear
9:35 AM 63.0 °F - 32.0 °F 31% 29.93 in 10.0 mi NNE 16.1 mph 25.3 mph N/A   Clear
9:55 AM 63.7 °F - 31.3 °F 30% 29.93 in 10.0 mi NNE 25.3 mph 32.2 mph N/A   Clear
10:15 AM 64.4 °F - 30.6 °F 28% 29.94 in 10.0 mi NE 25.3 mph 29.9 mph N/A   Clear
10:35 AM 63.9 °F - 30.2 °F 28% 29.95 in 10.0 mi NE 23.0 mph 26.5 mph N/A   Clear
10:55 AM 64.4 °F - 28.9 °F 26% 29.95 in 10.0 mi NNE 20.7 mph 26.5 mph N/A   Clear
11:15 AM 66.0 °F - 28.0 °F 24% 29.95 in 10.0 mi NNE 21.9 mph 25.3 mph N/A   Clear
11:35 AM 67.3 °F - 26.6 °F 22% 29.95 in 10.0 mi NNE 19.6 mph 25.3 mph N/A   Clear
11:55 AM 67.8 °F - 26.2 °F 21% 29.95 in 10.0 mi NE 19.6 mph - N/A   Clear
12:15 PM 68.4 °F - 26.2 °F 21% 29.95 in 10.0 mi NE 17.3 mph - N/A   Clear
12:35 PM 69.1 °F - 26.2 °F 20% 29.95 in 10.0 mi NE 16.1 mph 21.9 mph N/A   Clear
12:55 PM 69.8 °F - 25.5 °F 19% 29.95 in 10.0 mi NE 16.1 mph 19.6 mph N/A   Clear
1:15 PM 70.2 °F - 25.0 °F 18% 29.95 in 10.0 mi NE 13.8 mph 19.6 mph N/A   Clear
1:35 PM 70.3 °F - 23.7 °F 17% 29.95 in 10.0 mi NE 12.7 mph 16.1 mph N/A   Clear
1:55 PM 71.2 °F - 24.1 °F 17% 29.96 in 10.0 mi NE 5.8 mph 9.2 mph N/A   Clear
2:15 PM 72.3 °F - 23.9 °F 16% 29.95 in 10.0 mi NE 9.2 mph - N/A   Clear
2:35 PM 72.3 °F - 23.9 °F 16% 29.95 in 10.0 mi NE 3.5 mph - N/A   Clear
2:55 PM 72.1 °F - 23.5 °F 16% 29.94 in 10.0 mi NE 5.8 mph - N/A   Clear
3:15 PM 72.3 °F - 23.4 °F 16% 29.93 in 10.0 mi Calm Calm - N/A   Clear
3:35 PM 72.5 °F - 23.7 °F 16% 29.93 in 10.0 mi ESE 3.5 mph - N/A   Clear
3:55 PM 72.5 °F - 24.6 °F 17% 29.92 in 10.0 mi East 9.2 mph - N/A   Clear
4:15 PM 73.8 °F - 24.1 °F 16% 29.91 in 10.0 mi Calm Calm - N/A   Clear
4:35 PM 73.2 °F - 23.4 °F 15% 29.91 in 10.0 mi East 4.6 mph - N/A   Clear
4:55 PM 72.3 °F - 24.8 °F 17% 29.91 in 10.0 mi ESE 4.6 mph - N/A   Clear
5:15 PM 73.4 °F - 25.3 °F 17% 29.90 in 10.0 mi SSE 5.8 mph 9.2 mph N/A   Clear
5:35 PM 73.0 °F - 25.7 °F 17% 29.90 in 10.0 mi South 5.8 mph - N/A   Clear
5:55 PM 72.1 °F - 25.0 °F 17% 29.89 in 10.0 mi SE 3.5 mph - N/A   Clear
6:15 PM 72.1 °F - 26.6 °F 18% 29.88 in 10.0 mi ESE 9.2 mph - N/A   Clear
6:35 PM 73.0 °F - 27.0 °F 18% 29.89 in 10.0 mi SE 3.5 mph - N/A   Clear
6:55 PM 72.1 °F - 27.3 °F 19% 29.89 in 10.0 mi SSE 5.8 mph - N/A   Clear
7:15 PM 71.6 °F - 28.2 °F 20% 29.89 in 10.0 mi SE 5.8 mph - N/A   Clear
7:35 PM 70.2 °F - 30.9 °F 23% 29.88 in 10.0 mi SSE 10.4 mph - N/A   Clear
7:55 PM 67.8 °F - 29.5 °F 24% 29.88 in 10.0 mi South 6.9 mph - N/A   Clear
8:15 PM 63.7 °F - 29.5 °F 28% 29.89 in 10.0 mi South 6.9 mph - N/A   Clear
8:35 PM 61.2 °F - 29.7 °F 30% 29.89 in 10.0 mi South 6.9 mph - N/A   Clear
8:55 PM 58.8 °F - 30.4 °F 34% 29.90 in 10.0 mi South 8.1 mph - N/A   Clear
9:15 PM 56.7 °F - 29.8 °F 36% 29.90 in 10.0 mi South 8.1 mph - N/A   Clear
9:35 PM 55.8 °F - 30.7 °F 39% 29.90 in 10.0 mi SSE 6.9 mph - N/A   Clear
9:55 PM 54.5 °F - 31.1 °F 41% 29.90 in 10.0 mi SE 8.1 mph - N/A   Clear
10:15 PM 53.2 °F - 31.8 °F 44% 29.89 in 10.0 mi SE 10.4 mph - N/A   Clear
10:35 PM 52.9 °F - 32.0 °F 45% 29.89 in 10.0 mi SE 11.5 mph - N/A   Clear
10:55 PM 55.8 °F - 34.2 °F 44% 29.89 in 10.0 mi SSE 12.7 mph - N/A   Clear
11:15 PM 55.4 °F - 35.6 °F 47% 29.88 in 10.0 mi SSE 11.5 mph - N/A   Clear
11:35 PM 55.6 °F - 36.5 °F 49% 29.88 in 10.0 mi SSE 12.7 mph - N/A   Clear
11:55 PM 54.5 °F - 36.1 °F 50% 29.88 in 10.0 mi SSE 11.5 mph - N/A   Clear